Time,TemperatureF,DewpointF,PressureIn,WindDirection,WindDirectionDegrees,WindSpeedMPH,WindSpeedGustMPH,Humidity,HourlyPrecipIn,Conditions,Clouds,dailyrainin,SoftwareType,DateUTC
2013-01-17 00:04:00,31.3,24.3,30.15,NE,53,0.0,3.0,75,0.00,,,0.00,Weather View 32 v70,2013-01-17 08:04:00,
2013-01-17 00:09:00,31.3,24.3,30.15,NE,53,0.0,3.0,75,0.00,,,0.00,Weather View 32 v70,2013-01-17 08:09:00,
2013-01-17 00:14:00,31.3,24.3,30.15,NE,53,0.0,3.0,75,0.00,,,0.00,Weather View 32 v70,2013-01-17 08:14:00,
2013-01-17 00:24:00,31.1,24.1,30.15,NE,53,0.0,3.0,75,0.00,,,0.00,Weather View 32 v70,2013-01-17 08:24:00,
2013-01-17 00:29:00,31.1,24.1,30.15,NE,53,0.0,0.0,75,0.00,,,0.00,Weather View 32 v70,2013-01-17 08:29:00,
2013-01-17 00:34:00,31.1,24.1,30.15,NE,53,2.0,3.0,75,0.00,,,0.00,Weather View 32 v70,2013-01-17 08:34:00,
2013-01-17 00:44:00,30.9,24.2,30.15,NE,53,0.0,3.0,76,0.00,,,0.00,Weather View 32 v70,2013-01-17 08:44:00,
2013-01-17 00:49:00,30.9,24.2,30.15,NE,53,0.0,3.0,76,0.00,,,0.00,Weather View 32 v70,2013-01-17 08:49:00,
2013-01-17 00:54:00,30.9,24.2,30.15,NE,53,0.0,3.0,76,0.00,,,0.00,Weather View 32 v70,2013-01-17 08:54:00,
2013-01-17 01:04:00,31.1,24.4,30.15,NE,53,0.0,3.0,76,0.00,,,0.00,Weather View 32 v70,2013-01-17 09:04:00,
2013-01-17 01:09:00,31.1,24.4,30.15,NE,53,0.0,3.0,76,0.00,,,0.00,Weather View 32 v70,2013-01-17 09:09:00,
2013-01-17 01:14:00,30.9,24.2,30.15,NE,53,0.0,3.0,76,0.00,,,0.00,Weather View 32 v70,2013-01-17 09:14:00,
2013-01-17 01:19:00,30.9,24.2,30.15,NE,53,0.0,3.0,76,0.00,,,0.00,Weather View 32 v70,2013-01-17 09:19:00,
2013-01-17 01:24:00,31.1,24.4,30.15,NE,53,0.0,3.0,76,0.00,,,0.00,Weather View 32 v70,2013-01-17 09:24:00,
2013-01-17 01:34:00,31.1,24.7,30.15,NE,53,0.0,3.0,77,0.00,,,0.00,Weather View 32 v70,2013-01-17 09:34:00,
2013-01-17 01:39:00,31.1,24.7,30.15,NE,53,0.0,3.0,77,0.00,,,0.00,Weather View 32 v70,2013-01-17 09:39:00,
2013-01-17 01:49:00,31.1,24.7,30.15,NE,53,0.0,0.0,77,0.00,,,0.00,Weather View 32 v70,2013-01-17 09:49:00,
2013-01-17 01:54:00,30.9,24.6,30.15,NE,53,0.0,0.0,77,0.00,,,0.00,Weather View 32 v70,2013-01-17 09:54:00,
2013-01-17 01:59:00,31.1,24.7,30.15,NE,53,0.0,0.0,77,0.00,,,0.00,Weather View 32 v70,2013-01-17 09:59:00,
2013-01-17 02:04:00,30.7,24.1,30.15,NE,53,0.0,2.0,76,0.00,,,0.00,Weather View 32 v70,2013-01-17 10:04:00,
2013-01-17 02:14:00,30.6,23.9,30.15,NE,53,0.0,2.0,76,0.00,,,0.00,Weather View 32 v70,2013-01-17 10:14:00,
2013-01-17 02:19:00,30.6,23.9,30.15,NE,53,0.0,2.0,76,0.00,,,0.00,Weather View 32 v70,2013-01-17 10:19:00,
2013-01-17 02:24:00,30.6,23.9,30.15,NE,53,2.0,2.0,76,0.00,,,0.00,Weather View 32 v70,2013-01-17 10:24:00,
2013-01-17 02:29:00,30.6,23.9,30.15,NE,53,0.0,2.0,76,0.00,,,0.00,Weather View 32 v70,2013-01-17 10:29:00,
2013-01-17 02:39:00,30.6,23.9,30.15,NE,53,0.0,2.0,76,0.00,,,0.00,Weather View 32 v70,2013-01-17 10:39:00,
2013-01-17 02:44:00,30.4,23.7,30.15,NE,53,0.0,2.0,76,0.00,,,0.00,Weather View 32 v70,2013-01-17 10:44:00,
2013-01-17 02:49:00,30.4,23.7,30.15,NE,53,0.0,2.0,76,0.00,,,0.00,Weather View 32 v70,2013-01-17 10:49:00,
2013-01-17 02:59:00,30.4,23.7,30.15,NE,53,0.0,2.0,76,0.00,,,0.00,Weather View 32 v70,2013-01-17 10:59:00,
2013-01-17 03:04:00,30.4,23.7,30.15,NE,53,0.0,2.0,76,0.00,,,0.00,Weather View 32 v70,2013-01-17 11:04:00,
2013-01-17 03:09:00,30.2,23.5,30.15,NE,53,0.0,2.0,76,0.00,,,0.00,Weather View 32 v70,2013-01-17 11:09:00,
2013-01-17 03:14:00,30.2,23.5,30.15,NE,53,0.0,2.0,76,0.00,,,0.00,Weather View 32 v70,2013-01-17 11:14:00,
2013-01-17 03:24:00,30.4,23.7,30.15,NE,53,3.0,3.0,76,0.00,,,0.00,Weather View 32 v70,2013-01-17 11:24:00,
2013-01-17 03:29:00,30.4,23.7,30.15,NE,53,0.0,3.0,76,0.00,,,0.00,Weather View 32 v70,2013-01-17 11:29:00,
2013-01-17 03:34:00,30.6,23.9,30.15,NE,53,0.0,3.0,76,0.00,,,0.00,Weather View 32 v70,2013-01-17 11:34:00,
2013-01-17 03:39:00,30.6,23.9,30.12,NE,53,0.0,3.0,76,0.00,,,0.00,Weather View 32 v70,2013-01-17 11:39:00,
2013-01-17 03:49:00,30.7,24.1,30.12,NE,53,0.0,3.0,76,0.00,,,0.00,Weather View 32 v70,2013-01-17 11:49:00,
2013-01-17 03:54:00,30.7,24.1,30.12,NE,53,0.0,3.0,76,0.00,,,0.00,Weather View 32 v70,2013-01-17 11:54:00,
2013-01-17 04:04:00,30.7,24.1,30.12,NE,53,0.0,3.0,76,0.00,,,0.00,Weather View 32 v70,2013-01-17 12:04:00,
2013-01-17 04:09:00,30.9,24.2,30.12,NE,53,0.0,3.0,76,0.00,,,0.00,Weather View 32 v70,2013-01-17 12:09:00,
2013-01-17 04:14:00,30.9,24.2,30.12,NE,53,0.0,3.0,76,0.00,,,0.00,Weather View 32 v70,2013-01-17 12:14:00,
2013-01-17 04:19:00,30.9,24.2,30.12,NE,53,0.0,3.0,76,0.00,,,0.00,Weather View 32 v70,2013-01-17 12:19:00,
2013-01-17 04:24:00,30.9,24.2,30.12,NE,53,0.0,3.0,76,0.00,,,0.00,Weather View 32 v70,2013-01-17 12:24:00,
2013-01-17 04:34:00,30.2,23.5,30.12,NE,53,0.0,3.0,76,0.00,,,0.00,Weather View 32 v70,2013-01-17 12:34:00,
2013-01-17 04:39:00,30.2,23.2,30.12,NE,53,0.0,3.0,75,0.00,,,0.00,Weather View 32 v70,2013-01-17 12:39:00,
2013-01-17 04:49:00,30.0,23.4,30.12,NE,53,2.0,3.0,76,0.00,,,0.00,Weather View 32 v70,2013-01-17 12:49:00,
2013-01-17 04:54:00,30.2,23.5,30.12,NE,53,0.0,3.0,76,0.00,,,0.00,Weather View 32 v70,2013-01-17 12:54:00,
2013-01-17 04:59:00,30.2,23.5,30.12,NE,53,0.0,3.0,76,0.00,,,0.00,Weather View 32 v70,2013-01-17 12:59:00,
2013-01-17 05:04:00,30.0,23.4,30.12,NE,53,3.0,3.0,76,0.00,,,0.00,Weather View 32 v70,2013-01-17 13:04:00,
2013-01-17 05:14:00,29.7,22.7,30.09,NE,53,0.0,3.0,75,0.00,,,0.00,Weather View 32 v70,2013-01-17 13:14:00,
2013-01-17 05:19:00,29.7,22.7,30.09,NE,53,0.0,3.0,75,0.00,,,0.00,Weather View 32 v70,2013-01-17 13:19:00,
2013-01-17 05:24:00,29.7,22.7,30.09,NE,53,0.0,3.0,75,0.00,,,0.00,Weather View 32 v70,2013-01-17 13:24:00,
2013-01-17 05:29:00,29.8,22.9,30.09,NE,53,0.0,3.0,75,0.00,,,0.00,Weather View 32 v70,2013-01-17 13:29:00,
2013-01-17 05:39:00,29.8,22.9,30.09,NE,53,0.0,3.0,75,0.00,,,0.00,Weather View 32 v70,2013-01-17 13:39:00,
2013-01-17 05:44:00,29.8,22.9,30.09,NE,53,0.0,3.0,75,0.00,,,0.00,Weather View 32 v70,2013-01-17 13:44:00,
2013-01-17 05:49:00,29.8,22.9,30.09,NE,53,0.0,3.0,75,0.00,,,0.00,Weather View 32 v70,2013-01-17 13:49:00,
2013-01-17 05:59:00,29.8,22.9,30.09,NE,53,0.0,3.0,75,0.00,,,0.00,Weather View 32 v70,2013-01-17 13:59:00,
2013-01-17 06:04:00,29.8,22.9,30.09,NE,53,0.0,3.0,75,0.00,,,0.00,Weather View 32 v70,2013-01-17 14:04:00,
2013-01-17 06:09:00,29.8,22.6,30.09,NE,53,0.0,2.0,74,0.00,,,0.00,Weather View 32 v70,2013-01-17 14:09:00,
2013-01-17 06:14:00,29.7,22.4,30.09,NE,53,0.0,0.0,74,0.00,,,0.00,Weather View 32 v70,2013-01-17 14:14:00,
2013-01-17 06:24:00,29.7,22.4,30.09,NE,53,0.0,0.0,74,0.00,,,0.00,Weather View 32 v70,2013-01-17 14:24:00,
2013-01-17 06:29:00,29.5,22.2,30.09,NE,53,0.0,0.0,74,0.00,,,0.00,Weather View 32 v70,2013-01-17 14:29:00,
2013-01-17 06:34:00,29.7,22.4,30.09,NE,53,3.0,3.0,74,0.00,,,0.00,Weather View 32 v70,2013-01-17 14:34:00,
2013-01-17 06:39:00,29.8,22.9,30.09,NE,53,0.0,3.0,75,0.00,,,0.00,Weather View 32 v70,2013-01-17 14:39:00,
2013-01-17 06:49:00,29.8,22.6,30.09,NE,53,0.0,3.0,74,0.00,,,0.00,Weather View 32 v70,2013-01-17 14:49:00,
2013-01-17 06:54:00,29.8,22.6,30.09,NE,53,0.0,3.0,74,0.00,,,0.00,Weather View 32 v70,2013-01-17 14:54:00,
2013-01-17 06:59:00,29.7,22.4,30.09,NE,53,0.0,3.0,74,0.00,,,0.00,Weather View 32 v70,2013-01-17 14:59:00,
2013-01-17 07:09:00,29.5,22.2,30.09,NE,53,0.0,3.0,74,0.00,,,0.00,Weather View 32 v70,2013-01-17 15:09:00,
2013-01-17 07:14:00,29.5,22.2,30.09,NE,53,0.0,3.0,74,0.00,,,0.00,Weather View 32 v70,2013-01-17 15:14:00,
2013-01-17 07:19:00,29.5,22.2,30.09,NE,53,0.0,3.0,74,0.00,,,0.00,Weather View 32 v70,2013-01-17 15:19:00,
2013-01-17 07:24:00,29.5,22.2,30.09,NE,53,0.0,3.0,74,0.00,,,0.00,Weather View 32 v70,2013-01-17 15:24:00,
2013-01-17 07:34:00,29.5,22.2,30.09,NE,53,0.0,3.0,74,0.00,,,0.00,Weather View 32 v70,2013-01-17 15:34:00,
2013-01-17 07:39:00,29.7,22.4,30.09,NE,53,0.0,0.0,74,0.00,,,0.00,Weather View 32 v70,2013-01-17 15:39:00,
2013-01-17 07:44:00,29.7,22.4,30.09,NE,53,0.0,0.0,74,0.00,,,0.00,Weather View 32 v70,2013-01-17 15:44:00,
2013-01-17 07:49:00,29.5,21.9,30.09,NE,53,0.0,0.0,73,0.00,,,0.00,Weather View 32 v70,2013-01-17 15:49:00,
2013-01-17 07:59:00,29.5,22.2,30.09,NE,53,0.0,0.0,74,0.00,,,0.00,Weather View 32 v70,2013-01-17 15:59:00,
2013-01-17 08:04:00,29.5,22.2,30.09,NE,53,0.0,0.0,74,0.00,,,0.00,Weather View 32 v70,2013-01-17 16:04:00,
2013-01-17 08:09:00,29.8,22.6,30.09,NE,53,0.0,0.0,74,0.00,,,0.00,Weather View 32 v70,2013-01-17 16:09:00,
2013-01-17 08:14:00,29.7,22.4,30.09,NE,53,0.0,0.0,74,0.00,,,0.00,Weather View 32 v70,2013-01-17 16:14:00,
2013-01-17 08:24:00,29.7,22.4,30.09,NE,53,0.0,0.0,74,0.00,,,0.00,Weather View 32 v70,2013-01-17 16:24:00,
2013-01-17 08:29:00,29.5,21.9,30.09,NE,53,0.0,0.0,73,0.00,,,0.00,Weather View 32 v70,2013-01-17 16:29:00,
2013-01-17 08:34:00,29.5,21.9,30.09,NE,53,0.0,0.0,73,0.00,,,0.00,Weather View 32 v70,2013-01-17 16:34:00,
2013-01-17 08:39:00,29.5,22.2,30.09,NE,53,0.0,0.0,74,0.00,,,0.00,Weather View 32 v70,2013-01-17 16:39:00,
2013-01-17 08:49:00,29.5,21.9,30.09,NE,53,0.0,0.0,73,0.00,,,0.00,Weather View 32 v70,2013-01-17 16:49:00,
2013-01-17 08:59:00,29.5,21.9,30.09,NE,53,0.0,0.0,73,0.00,,,0.00,Weather View 32 v70,2013-01-17 16:59:00,
2013-01-17 09:04:00,29.7,22.1,30.09,NE,53,0.0,0.0,73,0.00,,,0.00,Weather View 32 v70,2013-01-17 17:04:00,
2013-01-17 09:09:00,29.8,22.2,30.09,NE,53,0.0,0.0,73,0.00,,,0.00,Weather View 32 v70,2013-01-17 17:09:00,
2013-01-17 09:14:00,30.0,22.4,30.09,NE,53,0.0,0.0,73,0.00,,,0.00,Weather View 32 v70,2013-01-17 17:14:00,
2013-01-17 09:24:00,30.2,22.6,30.09,NE,53,0.0,0.0,73,0.00,,,0.00,Weather View 32 v70,2013-01-17 17:24:00,
2013-01-17 09:29:00,30.0,22.4,30.09,NE,53,0.0,0.0,73,0.00,,,0.00,Weather View 32 v70,2013-01-17 17:29:00,
2013-01-17 09:34:00,29.8,21.9,30.09,NE,53,0.0,0.0,72,0.00,,,0.00,Weather View 32 v70,2013-01-17 17:34:00,
2013-01-17 09:39:00,29.8,21.9,30.09,NE,53,0.0,0.0,72,0.00,,,0.00,Weather View 32 v70,2013-01-17 17:39:00,
2013-01-17 09:49:00,29.8,22.2,30.09,NE,53,0.0,0.0,73,0.00,,,0.00,Weather View 32 v70,2013-01-17 17:49:00,
2013-01-17 09:54:00,29.8,22.2,30.09,NE,53,0.0,0.0,73,0.00,,,0.00,Weather View 32 v70,2013-01-17 17:54:00,
2013-01-17 09:59:00,29.8,22.2,30.09,NE,53,0.0,0.0,73,0.00,,,0.00,Weather View 32 v70,2013-01-17 17:59:00,
2013-01-17 10:09:00,30.0,22.7,30.12,NE,53,0.0,0.0,74,0.00,,,0.00,Weather View 32 v70,2013-01-17 18:09:00,
2013-01-17 10:14:00,30.2,22.9,30.12,NE,53,0.0,0.0,74,0.00,,,0.00,Weather View 32 v70,2013-01-17 18:14:00,
2013-01-17 10:19:00,30.2,22.9,30.12,NE,53,0.0,0.0,74,0.00,,,0.00,Weather View 32 v70,2013-01-17 18:19:00,
2013-01-17 10:24:00,30.6,23.3,30.09,NE,53,0.0,0.0,74,0.00,,,0.00,Weather View 32 v70,2013-01-17 18:24:00,
2013-01-17 10:34:00,30.7,23.8,30.09,North,357,0.0,4.0,75,0.00,,,0.00,Weather View 32 v70,2013-01-17 18:34:00,
2013-01-17 10:39:00,31.1,24.4,30.09,North,357,0.0,4.0,76,0.00,,,0.00,Weather View 32 v70,2013-01-17 18:39:00,
2013-01-17 10:44:00,31.1,24.4,30.09,North,357,0.0,4.0,76,0.00,,,0.00,Weather View 32 v70,2013-01-17 18:44:00,
2013-01-17 10:54:00,30.9,24.2,30.09,North,357,0.0,4.0,76,0.00,,,0.00,Weather View 32 v70,2013-01-17 18:54:00,
2013-01-17 10:59:00,30.9,24.2,30.09,North,357,0.0,4.0,76,0.00,,,0.00,Weather View 32 v70,2013-01-17 18:59:00,
2013-01-17 11:04:00,31.1,24.7,30.09,North,357,0.0,4.0,77,0.00,,,0.00,Weather View 32 v70,2013-01-17 19:04:00,
2013-01-17 11:09:00,31.3,24.9,30.09,North,357,0.0,4.0,77,0.00,,,0.00,Weather View 32 v70,2013-01-17 19:09:00,
2013-01-17 11:14:00,31.5,25.1,30.09,North,357,0.0,4.0,77,0.00,,,0.00,Weather View 32 v70,2013-01-17 19:14:00,
2013-01-17 11:24:00,32.0,25.9,30.09,North,357,0.0,4.0,78,0.00,,,0.00,Weather View 32 v70,2013-01-17 19:24:00,
2013-01-17 11:29:00,32.2,26.1,30.09,North,357,0.0,4.0,78,0.00,,,0.00,Weather View 32 v70,2013-01-17 19:29:00,
2013-01-17 11:34:00,32.4,26.3,30.09,North,357,0.0,2.0,78,0.00,,,0.00,Weather View 32 v70,2013-01-17 19:34:00,
2013-01-17 11:39:00,32.4,26.3,30.09,North,357,0.0,2.0,78,0.00,,,0.00,Weather View 32 v70,2013-01-17 19:39:00,
2013-01-17 11:49:00,32.5,26.7,30.09,North,357,0.0,3.0,79,0.00,,,0.00,Weather View 32 v70,2013-01-17 19:49:00,
2013-01-17 11:54:00,32.7,26.9,30.06,North,357,0.0,3.0,79,0.00,,,0.00,Weather View 32 v70,2013-01-17 19:54:00,
2013-01-17 11:59:00,32.9,27.1,30.06,North,357,0.0,3.0,79,0.00,,,0.00,Weather View 32 v70,2013-01-17 19:59:00,
2013-01-17 12:09:00,33.3,27.8,30.06,North,357,0.0,3.0,80,0.00,,,0.00,Weather View 32 v70,2013-01-17 20:09:00,
2013-01-17 12:14:00,33.4,27.9,30.06,North,357,2.0,3.0,80,0.00,,,0.00,Weather View 32 v70,2013-01-17 20:14:00,
2013-01-17 12:19:00,33.6,28.4,30.06,North,357,0.0,3.0,81,0.00,,,0.00,Weather View 32 v70,2013-01-17 20:19:00,
2013-01-17 12:24:00,33.8,28.6,30.06,NNW,341,0.0,4.0,81,0.00,,,0.00,Weather View 32 v70,2013-01-17 20:24:00,
2013-01-17 12:34:00,33.8,28.6,30.06,West,271,0.0,4.0,81,0.00,,,0.00,Weather View 32 v70,2013-01-17 20:34:00,
2013-01-17 12:39:00,33.8,28.9,30.06,West,271,0.0,4.0,82,0.00,,,0.00,Weather View 32 v70,2013-01-17 20:39:00,
2013-01-17 12:44:00,34.0,29.1,30.06,West,271,0.0,4.0,82,0.00,,,0.00,Weather View 32 v70,2013-01-17 20:44:00,
2013-01-17 12:54:00,34.0,29.4,30.03,West,271,0.0,4.0,83,0.00,,,0.00,Weather View 32 v70,2013-01-17 20:54:00,
2013-01-17 12:59:00,34.2,29.5,30.03,West,271,0.0,4.0,83,0.00,,,0.00,Weather View 32 v70,2013-01-17 20:59:00,
2013-01-17 13:04:00,34.2,29.5,30.03,West,271,0.0,4.0,83,0.00,,,0.00,Weather View 32 v70,2013-01-17 21:04:00,
2013-01-17 13:09:00,34.3,30.0,30.03,West,271,0.0,4.0,84,0.00,,,0.00,Weather View 32 v70,2013-01-17 21:09:00,
2013-01-17 13:19:00,34.5,30.5,30.03,West,271,0.0,4.0,85,0.00,,,0.00,Weather View 32 v70,2013-01-17 21:19:00,
2013-01-17 13:24:00,34.7,30.7,30.03,West,271,0.0,4.0,85,0.00,,,0.00,Weather View 32 v70,2013-01-17 21:24:00,
2013-01-17 13:29:00,34.7,30.7,30.03,West,271,0.0,4.0,85,0.00,,,0.00,Weather View 32 v70,2013-01-17 21:29:00,
2013-01-17 13:34:00,34.7,30.7,30.03,West,271,0.0,4.0,85,0.00,,,0.00,Weather View 32 v70,2013-01-17 21:34:00,
2013-01-17 13:39:00,34.9,30.8,30.03,West,271,3.0,4.0,85,0.00,,,0.00,Weather View 32 v70,2013-01-17 21:39:00,
2013-01-17 13:45:00,34.9,30.8,30.03,West,271,2.0,4.0,85,0.00,,,0.00,Weather View 32 v70,2013-01-17 21:45:00,
2013-01-17 13:54:00,34.9,31.1,30.03,West,271,0.0,4.0,86,0.00,,,0.00,Weather View 32 v70,2013-01-17 21:54:00,
2013-01-17 14:04:00,35.1,31.3,30.03,West,271,0.0,4.0,86,0.00,,,0.00,Weather View 32 v70,2013-01-17 22:04:00,
2013-01-17 14:09:00,35.2,31.5,30.00,West,271,0.0,4.0,86,0.00,,,0.00,Weather View 32 v70,2013-01-17 22:09:00,
2013-01-17 14:14:00,35.4,31.9,30.00,West,271,0.0,4.0,87,0.00,,,0.00,Weather View 32 v70,2013-01-17 22:14:00,
2013-01-17 14:19:00,35.4,31.9,30.00,West,271,0.0,4.0,87,0.00,,,0.00,Weather View 32 v70,2013-01-17 22:19:00,
2013-01-17 14:24:00,35.4,31.9,30.00,West,271,0.0,4.0,87,0.00,,,0.00,Weather View 32 v70,2013-01-17 22:24:00,
2013-01-17 14:34:00,35.4,31.9,30.00,West,271,0.0,4.0,87,0.00,,,0.00,Weather View 32 v70,2013-01-17 22:34:00,
2013-01-17 14:39:00,35.6,32.1,30.00,West,271,0.0,3.0,87,0.00,,,0.00,Weather View 32 v70,2013-01-17 22:39:00,
2013-01-17 14:44:00,35.6,32.1,30.00,West,271,0.0,3.0,87,0.00,,,0.00,Weather View 32 v70,2013-01-17 22:44:00,
2013-01-17 14:54:00,35.6,32.1,30.00,West,271,0.0,3.0,87,0.00,,,0.00,Weather View 32 v70,2013-01-17 22:54:00,
2013-01-17 14:59:00,35.6,32.1,30.00,West,271,0.0,3.0,87,0.00,,,0.00,Weather View 32 v70,2013-01-17 22:59:00,
2013-01-17 15:04:00,35.6,32.1,30.00,West,271,0.0,3.0,87,0.00,,,0.00,Weather View 32 v70,2013-01-17 23:04:00,
2013-01-17 15:09:00,35.6,32.1,30.00,West,271,0.0,3.0,87,0.00,,,0.00,Weather View 32 v70,2013-01-17 23:09:00,
2013-01-17 15:19:00,35.8,32.3,30.00,West,271,0.0,3.0,87,0.00,,,0.00,Weather View 32 v70,2013-01-17 23:19:00,
2013-01-17 15:24:00,35.8,32.3,29.97,West,271,0.0,3.0,87,0.00,,,0.00,Weather View 32 v70,2013-01-17 23:24:00,
2013-01-17 15:29:00,35.6,32.1,29.97,West,271,0.0,3.0,87,0.00,,,0.00,Weather View 32 v70,2013-01-17 23:29:00,
2013-01-17 15:34:00,35.6,32.1,29.97,West,271,0.0,3.0,87,0.00,,,0.00,Weather View 32 v70,2013-01-17 23:34:00,
2013-01-17 15:39:00,35.6,32.1,29.97,West,271,0.0,3.0,87,0.00,,,0.00,Weather View 32 v70,2013-01-17 23:39:00,
2013-01-17 15:46:00,35.6,32.1,29.97,West,271,0.0,2.0,87,0.00,,,0.00,Weather View 32 v70,2013-01-17 23:46:00,
2013-01-17 15:54:00,35.8,32.6,29.97,West,271,0.0,3.0,88,0.00,,,0.00,Weather View 32 v70,2013-01-17 23:54:00,
2013-01-17 15:59:00,35.8,32.6,29.97,West,271,0.0,3.0,88,0.00,,,0.00,Weather View 32 v70,2013-01-17 23:59:00,
2013-01-17 16:04:00,35.8,32.6,29.97,West,271,0.0,3.0,88,0.00,,,0.00,Weather View 32 v70,2013-01-18 00:04:00,
2013-01-17 16:09:00,35.6,32.4,29.97,West,271,0.0,3.0,88,0.00,,,0.00,Weather View 32 v70,2013-01-18 00:09:00,
2013-01-17 16:14:00,35.6,32.4,29.97,West,271,0.0,3.0,88,0.00,,,0.00,Weather View 32 v70,2013-01-18 00:14:00,
2013-01-17 16:19:00,35.6,32.4,29.97,West,271,0.0,3.0,88,0.00,,,0.00,Weather View 32 v70,2013-01-18 00:19:00,
2013-01-17 16:24:00,35.4,32.2,30.00,West,271,0.0,3.0,88,0.00,,,0.00,Weather View 32 v70,2013-01-18 00:24:00,
2013-01-17 16:34:00,35.4,32.2,30.00,West,271,0.0,3.0,88,0.00,,,0.00,Weather View 32 v70,2013-01-18 00:34:00,
2013-01-17 16:39:00,35.4,32.2,29.97,West,271,0.0,3.0,88,0.00,,,0.00,Weather View 32 v70,2013-01-18 00:39:00,
2013-01-17 16:44:00,35.4,32.2,29.97,West,271,0.0,3.0,88,0.00,,,0.00,Weather View 32 v70,2013-01-18 00:44:00,
2013-01-17 16:54:00,35.4,32.2,29.97,West,271,0.0,3.0,88,0.00,,,0.00,Weather View 32 v70,2013-01-18 00:54:00,
2013-01-17 16:59:00,35.4,32.2,29.97,West,271,0.0,3.0,88,0.00,,,0.00,Weather View 32 v70,2013-01-18 00:59:00,
2013-01-17 17:04:00,35.4,32.2,29.97,West,271,0.0,3.0,88,0.00,,,0.00,Weather View 32 v70,2013-01-18 01:04:00,
2013-01-17 17:14:00,35.2,32.0,29.97,West,271,0.0,3.0,88,0.00,,,0.00,Weather View 32 v70,2013-01-18 01:14:00,
2013-01-17 17:19:00,35.2,32.0,29.97,West,271,0.0,3.0,88,0.00,,,0.00,Weather View 32 v70,2013-01-18 01:19:00,
2013-01-17 17:24:00,35.2,32.0,29.97,West,271,0.0,0.0,88,0.00,,,0.00,Weather View 32 v70,2013-01-18 01:24:00,
2013-01-17 17:29:00,35.2,32.0,29.97,West,271,0.0,0.0,88,0.00,,,0.00,Weather View 32 v70,2013-01-18 01:29:00,
2013-01-17 17:34:00,35.2,32.0,29.97,West,271,0.0,0.0,88,0.00,,,0.00,Weather View 32 v70,2013-01-18 01:34:00,
2013-01-17 17:44:00,35.1,31.9,29.97,West,271,0.0,0.0,88,0.00,,,0.00,Weather View 32 v70,2013-01-18 01:44:00,
2013-01-17 18:00:00,34.9,31.7,29.97,West,271,0.0,0.0,88,0.00,,,0.00,Weather View 32 v70,2013-01-18 02:00:00,
2013-01-17 18:05:00,34.7,31.5,29.97,West,271,0.0,0.0,88,0.00,,,0.00,Weather View 32 v70,2013-01-18 02:05:00,
2013-01-17 18:10:00,34.7,31.5,29.97,West,271,0.0,0.0,88,0.00,,,0.00,Weather View 32 v70,2013-01-18 02:10:00,
2013-01-17 18:15:00,34.5,31.3,29.97,West,271,0.0,0.0,88,0.00,,,0.00,Weather View 32 v70,2013-01-18 02:15:00,
2013-01-17 18:20:00,34.5,31.3,29.97,West,271,0.0,0.0,88,0.00,,,0.00,Weather View 32 v70,2013-01-18 02:20:00,
2013-01-17 18:25:00,34.3,30.9,29.97,West,271,0.0,0.0,87,0.00,,,0.00,Weather View 32 v70,2013-01-18 02:25:00,
2013-01-17 18:35:00,34.0,30.5,29.97,West,271,0.0,0.0,87,0.00,,,0.00,Weather View 32 v70,2013-01-18 02:35:00,
2013-01-17 18:45:00,33.8,30.3,29.97,West,271,0.0,0.0,87,0.00,,,0.00,Weather View 32 v70,2013-01-18 02:45:00,
2013-01-17 18:50:00,33.8,30.3,29.97,West,271,0.0,0.0,87,0.00,,,0.00,Weather View 32 v70,2013-01-18 02:50:00,
2013-01-17 18:55:00,33.8,30.3,29.97,West,271,0.0,0.0,87,0.00,,,0.00,Weather View 32 v70,2013-01-18 02:55:00,
2013-01-17 19:00:00,33.6,30.2,29.97,West,271,0.0,0.0,87,0.00,,,0.00,Weather View 32 v70,2013-01-18 03:00:00,
2013-01-17 19:10:00,33.8,30.3,29.97,West,271,0.0,0.0,87,0.00,,,0.00,Weather View 32 v70,2013-01-18 03:10:00,
2013-01-17 19:15:00,33.8,30.3,29.97,West,271,0.0,0.0,87,0.00,,,0.00,Weather View 32 v70,2013-01-18 03:15:00,
2013-01-17 19:20:00,33.6,30.4,29.97,West,271,0.0,0.0,88,0.00,,,0.00,Weather View 32 v70,2013-01-18 03:20:00,
2013-01-17 19:25:00,33.6,30.2,29.97,West,271,0.0,0.0,87,0.00,,,0.00,Weather View 32 v70,2013-01-18 03:25:00,
2013-01-17 19:35:00,33.4,30.0,29.97,West,271,0.0,0.0,87,0.00,,,0.00,Weather View 32 v70,2013-01-18 03:35:00,
2013-01-17 19:40:00,33.4,30.0,29.97,West,271,0.0,0.0,87,0.00,,,0.00,Weather View 32 v70,2013-01-18 03:40:00,
2013-01-17 19:45:00,33.4,30.3,29.97,West,271,0.0,0.0,88,0.00,,,0.00,Weather View 32 v70,2013-01-18 03:45:00,
2013-01-17 19:50:00,33.4,30.3,29.97,West,271,0.0,3.0,88,0.00,,,0.00,Weather View 32 v70,2013-01-18 03:50:00,
2013-01-17 19:55:00,33.4,30.3,29.97,West,271,0.0,3.0,88,0.00,,,0.00,Weather View 32 v70,2013-01-18 03:55:00,
2013-01-17 20:00:00,33.3,30.1,29.97,West,271,4.0,4.0,88,0.00,,,0.00,Weather View 32 v70,2013-01-18 04:00:00,
2013-01-17 20:10:00,33.3,29.8,29.97,NNW,343,0.0,4.0,87,0.00,,,0.00,Weather View 32 v70,2013-01-18 04:10:00,
2013-01-17 20:20:00,33.1,29.9,29.97,WNW,298,3.0,5.0,88,0.00,,,0.00,Weather View 32 v70,2013-01-18 04:20:00,
2013-01-17 20:25:00,33.1,29.9,29.97,SE,135,0.0,5.0,88,0.00,,,0.00,Weather View 32 v70,2013-01-18 04:25:00,
2013-01-17 20:30:00,33.3,30.1,29.97,SE,135,0.0,5.0,88,0.00,,,0.00,Weather View 32 v70,2013-01-18 04:30:00,
2013-01-17 20:35:00,33.3,30.1,29.97,SE,135,3.0,5.0,88,0.00,,,0.00,Weather View 32 v70,2013-01-18 04:35:00,
2013-01-17 20:45:00,33.3,30.1,29.97,SSE,156,0.0,5.0,88,0.00,,,0.00,Weather View 32 v70,2013-01-18 04:45:00,
2013-01-17 20:50:00,33.4,30.3,29.97,SSE,156,0.0,5.0,88,0.00,,,0.00,Weather View 32 v70,2013-01-18 04:50:00,
2013-01-17 20:55:00,33.4,30.3,29.94,SSE,156,0.0,5.0,88,0.00,,,0.00,Weather View 32 v70,2013-01-18 04:55:00,
2013-01-17 21:01:00,33.4,30.3,29.94,SSE,156,0.0,5.0,88,0.00,,,0.00,Weather View 32 v70,2013-01-18 05:01:00,
2013-01-17 21:10:00,33.4,30.3,29.94,SSE,156,0.0,5.0,88,0.00,,,0.00,Weather View 32 v70,2013-01-18 05:10:00,
2013-01-17 21:15:00,33.6,30.7,29.97,SSE,156,0.0,5.0,89,0.00,,,0.00,Weather View 32 v70,2013-01-18 05:15:00,
2013-01-17 21:20:00,33.6,30.7,29.97,SSE,156,0.0,5.0,89,0.00,,,0.00,Weather View 32 v70,2013-01-18 05:20:00,
2013-01-17 21:25:00,33.6,30.7,29.97,SSE,156,0.0,4.0,89,0.00,,,0.00,Weather View 32 v70,2013-01-18 05:25:00,
2013-01-17 21:35:00,33.6,30.7,29.97,SSE,156,0.0,4.0,89,0.00,,,0.00,Weather View 32 v70,2013-01-18 05:35:00,
2013-01-17 21:40:00,33.6,30.7,29.97,SSE,156,0.0,4.0,89,0.00,,,0.00,Weather View 32 v70,2013-01-18 05:40:00,
2013-01-17 21:45:00,33.6,30.7,29.97,SSE,156,0.0,4.0,89,0.00,,,0.00,Weather View 32 v70,2013-01-18 05:45:00,
2013-01-17 21:55:00,33.6,30.7,29.97,SSE,156,0.0,4.0,89,0.00,,,0.00,Weather View 32 v70,2013-01-18 05:55:00,
2013-01-17 22:00:00,33.6,30.7,29.97,SSE,156,0.0,2.0,89,0.00,,,0.00,Weather View 32 v70,2013-01-18 06:00:00,
2013-01-17 22:05:00,33.6,30.7,29.97,SSE,156,0.0,2.0,89,0.00,,,0.00,Weather View 32 v70,2013-01-18 06:05:00,
2013-01-17 22:10:00,33.6,30.7,29.94,SSE,156,0.0,0.0,89,0.00,,,0.00,Weather View 32 v70,2013-01-18 06:10:00,
2013-01-17 22:15:00,33.6,30.7,29.94,SSE,156,0.0,0.0,89,0.00,,,0.00,Weather View 32 v70,2013-01-18 06:15:00,
2013-01-17 22:25:00,33.8,30.6,29.94,SSE,156,0.0,0.0,88,0.00,,,0.00,Weather View 32 v70,2013-01-18 06:25:00,
2013-01-17 22:30:00,33.6,30.7,29.94,SSE,156,0.0,0.0,89,0.00,,,0.00,Weather View 32 v70,2013-01-18 06:30:00,
2013-01-17 22:35:00,33.6,30.7,29.94,SSE,156,0.0,0.0,89,0.00,,,0.00,Weather View 32 v70,2013-01-18 06:35:00,
2013-01-17 22:40:00,33.6,30.7,29.94,SSE,156,0.0,0.0,89,0.00,,,0.00,Weather View 32 v70,2013-01-18 06:40:00,
2013-01-17 22:45:00,33.6,30.7,29.94,SSE,156,0.0,0.0,89,0.00,,,0.00,Weather View 32 v70,2013-01-18 06:45:00,
2013-01-17 22:55:00,33.6,30.7,29.94,SSE,156,0.0,3.0,89,0.00,,,0.00,Weather View 32 v70,2013-01-18 06:55:00,
2013-01-17 23:00:00,33.6,30.7,29.94,SSE,156,0.0,3.0,89,0.00,,,0.00,Weather View 32 v70,2013-01-18 07:00:00,
2013-01-17 23:05:00,33.4,30.5,29.94,SSE,156,0.0,3.0,89,0.00,,,0.00,Weather View 32 v70,2013-01-18 07:05:00,
2013-01-17 23:10:00,33.3,30.4,29.94,SSE,156,0.0,3.0,89,0.00,,,0.00,Weather View 32 v70,2013-01-18 07:10:00,
2013-01-17 23:15:00,33.1,29.9,29.94,SSE,156,0.0,3.0,88,0.00,,,0.00,Weather View 32 v70,2013-01-18 07:15:00,
2013-01-17 23:20:00,32.9,29.7,29.94,SSE,156,0.0,3.0,88,0.00,,,0.00,Weather View 32 v70,2013-01-18 07:20:00,
2013-01-17 23:30:00,32.7,29.6,29.94,SSE,156,0.0,3.0,88,0.00,,,0.00,Weather View 32 v70,2013-01-18 07:30:00,
2013-01-17 23:35:00,32.9,29.7,29.94,SSE,156,0.0,3.0,88,0.00,,,0.00,Weather View 32 v70,2013-01-18 07:35:00,
2013-01-17 23:40:00,32.9,29.7,29.94,SSE,156,0.0,3.0,88,0.00,,,0.00,Weather View 32 v70,2013-01-18 07:40:00,
2013-01-17 23:45:00,32.7,29.6,29.94,SSE,156,0.0,3.0,88,0.00,,,0.00,Weather View 32 v70,2013-01-18 07:45:00,
2013-01-17 23:50:00,32.5,29.4,29.94,SSE,156,0.0,0.0,88,0.00,,,0.00,Weather View 32 v70,2013-01-18 07:50:00,
2013-01-17 23:55:00,32.5,29.4,29.94,SSE,156,0.0,0.0,88,0.00,,,0.00,Weather View 32 v70,2013-01-18 07:55:00,